"SCET";"TARGET";"ELECTRON_DENSITY";"ERROR_FLAG";"ELECTRON_DENSITY_ERROR";"FREQ_FCE";"MEASURED_VALUE";"MEASURED_ITEM";"FREQ_PLASMA";"FREQ_UPPER_HYBRID";"FREQ_R_EQUALS_ZERO";"FREQ_L_EQUALS_ZERO";"ORBIT_NUMBER";"SATURN_RADIUS";"SATURN_IAU_LONGITUDE";"SATURN_SLS4_S_LONGITUDE";"SATURN_SLS4_N_LONGITUDE";"SATURN_SLS5_S_LONGITUDE";"SATURN_SLS5_N_LONGITUDE";"SATURN_LOCAL_TIME";"SATURN_KRONOGRAPHIC_LATITUDE";"SATURN_MAGNETIC_LATITUDE";"SATURN_L";"SATURN_L_OFFSET";"SATURN_SOLAR_EQUATORIAL_X";"SATURN_SOLAR_EQUATORIAL_Y";"SATURN_SOLAR_EQUATORIAL_Z";"SATURN_ALTITUDE";"ENCELADUS_ENCOUNTER_NUMBER";"ENCELADUS_RADIUS";"ENCELADUS_COROTATIONAL_X";"ENCELADUS_COROTATIONAL_Y";"ENCELADUS_COROTATIONAL_Z";"ENCELADUS_TRUE_ANOMALY";"ENCELADUS_PERIAPSIS_TIME";"JUPITER_RADIUS";"JUPITER_SYSTEMIII_LONGITUDE";"JUPITER_MAGNETIC_LATITUDE";"JUPITER_MAGNETIC_LOCAL_TIME";"JUPITER_L";"IO_PHASE";"EARTH_RADIUS";"EARTH_MAGNETIC_LATITUDE";"EARTH_LOCAL_TIME";"EARTH_L"
"[UTC]";"[0=Saturn, 1=Enceladus, 2=Jupiter, 3=Earth]";"[cm-3]";"[0=automated, 1=manual]";"[normalized density error]";"[Hz]";"[Hz]";"[0=upper hybrid frequency, 1=plasma frequency cutoff]";"[Hz]";"[Hz]";"[Hz]";"[Hz}";"[0, A, B, C, 3, 4, ... , 292, 293]";"[Rs where 1Rs=60268km]";"[degrees]";"[degrees]";"[degrees]";"[degrees]";"[degrees]";"[hours]";"[degrees]";"[degrees where offset=2293km north]";"[Rs where 1Rs=60268km]";"[Rs where 1Rs=60268km and offset=2293km north]";"[Rs where 1Rs=60268km]";"[Rs where 1Rs=60268km]";"[Rs where 1Rs=60268km]";"[km where ellipsoid a,b=60268km and c=54364km]";"[E0, E1, E2, ... , E21, E22]";"[Renc where 1Renc=252.1km]";"[Renc where 1Renc=252.1km]";"[Renc where 1Renc=252.1km]";"[Renc where 1Renc=252.1km]";"[degrees]";"[UTC]";"[Rj where 1Rj=71492km]";"[degrees]";"[degrees using JRM09 model]";"[hours using JRM09 model]";"[Rj where 1Rj=71492km]";"[degrees]";"[Re where 1Re=6378.1366km]";"[degrees]";"[hours]";"[Re where 1Re=6378.1366km]"
2001-01-09T08:00:32.289Z;2;1.2320e-01;1;     0.853;    31.023;   3152.181; 1;   3152.181;   3152.333;   3167.730;   3136.708;;;;;;;;;;;;;;;;;;;;;;;; 190.020; 284.089;  -2.055;  19.071; 190.264; 313.896;;;;
2001-01-09T08:01:36.289Z;2;9.0070e-02;1;     0.696;    30.301;   2694.982; 1;   2694.982;   2695.152;   2710.175;   2679.874;;;;;;;;;;;;;;;;;;;;;;;; 190.027; 284.732;  -2.170;  19.072; 190.299; 314.046;;;;
2001-01-09T08:02:40.289Z;2;1.1270e-01;1;     0.781;    30.119;   3014.163; 1;   3014.163;   3014.313;   3029.260;   2999.141;;;;;;;;;;;;;;;;;;;;;;;; 190.033; 285.374;  -2.285;  19.073; 190.336; 314.196;;;;
2001-01-09T08:03:44.287Z;2;1.1780e-01;1;     0.764;    31.312;   3082.400; 1;   3082.400;   3082.559;   3098.096;   3066.784;;;;;;;;;;;;;;;;;;;;;;;; 190.040; 286.017;  -2.400;  19.074; 190.374; 314.345;;;;
2001-01-09T08:04:48.287Z;2;1.1780e-01;1;     0.764;    30.732;   3082.400; 1;   3082.400;   3082.553;   3097.804;   3067.072;;;;;;;;;;;;;;;;;;;;;;;; 190.047; 286.659;  -2.515;  19.075; 190.414; 314.495;;;;
2001-01-09T08:05:52.287Z;2;1.0300e-01;1;     0.504;    31.301;   2882.188; 1;   2882.188;   2882.358;   2897.881;   2866.580;;;;;;;;;;;;;;;;;;;;;;;; 190.054; 287.302;  -2.630;  19.076; 190.455; 314.645;;;;
2001-01-09T08:06:56.287Z;2;1.1780e-01;1;     0.509;    32.188;   3082.400; 1;   3082.400;   3082.568;   3098.536;   3066.348;;;;;;;;;;;;;;;;;;;;;;;; 190.060; 287.945;  -2.745;  19.077; 190.497; 314.794;;;;
2001-01-09T08:08:00.285Z;2;9.8500e-02;1;     0.515;    30.062;   2818.383; 1;   2818.383;   2818.543;   2833.454;   2803.392;;;;;;;;;;;;;;;;;;;;;;;; 190.067; 288.587;  -2.860;  19.078; 190.542; 314.944;;;;
2001-01-09T08:09:04.285Z;2;1.0300e-01;1;     0.504;    21.066;   2882.188; 1;   2882.188;   2882.265;   2892.740;   2871.674;;;;;;;;;;;;;;;;;;;;;;;; 190.074; 289.230;  -2.975;  19.079; 190.588; 315.094;;;;
2001-01-09T08:10:08.285Z;2;1.1270e-01;1;     0.520;    21.111;   3014.163; 1;   3014.163;   3014.237;   3024.737;   3003.626;;;;;;;;;;;;;;;;;;;;;;;; 190.081; 289.872;  -3.090;  19.080; 190.635; 315.244;;;;
2001-01-09T08:11:12.285Z;2;9.8500e-02;1;     0.258;    33.245;   2818.383; 1;   2818.383;   2818.579;   2835.055;   2801.810;;;;;;;;;;;;;;;;;;;;;;;; 190.088; 290.515;  -3.205;  19.081; 190.684; 315.393;;;;
2001-01-09T08:12:16.285Z;2;9.8500e-02;1;     0.515;    19.450;   2818.383; 1;   2818.383;   2818.450;   2828.125;   2808.675;;;;;;;;;;;;;;;;;;;;;;;; 190.094; 291.157;  -3.320;  19.082; 190.734; 315.543;;;;
2001-01-09T08:13:20.283Z;2;1.1780e-01;1;     0.509;    18.720;   3082.400; 1;   3082.400;   3082.457;   3091.774;   3073.054;;;;;;;;;;;;;;;;;;;;;;;; 190.101; 291.800;  -3.435;  19.083; 190.786; 315.693;;;;
2001-01-09T08:14:24.283Z;2;1.1270e-01;1;     0.520;    32.771;   3014.163; 1;   3014.163;   3014.341;   3030.593;   2997.822;;;;;;;;;;;;;;;;;;;;;;;; 190.108; 292.443;  -3.550;  19.084; 190.839; 315.843;;;;
2001-01-09T08:15:28.283Z;2;9.8500e-02;1;     0.258;    32.094;   2818.383; 1;   2818.383;   2818.566;   2834.476;   2802.382;;;;;;;;;;;;;;;;;;;;;;;; 190.115; 293.085;  -3.664;  19.085; 190.894; 315.992;;;;
2001-01-09T08:16:32.283Z;2;9.8500e-02;1;     0.515;    33.197;   2818.383; 1;   2818.383;   2818.579;   2835.031;   2801.833;;;;;;;;;;;;;;;;;;;;;;;; 190.122; 293.728;  -3.779;  19.086; 190.951; 316.142;;;;
2001-01-09T08:17:36.281Z;2;1.1270e-01;1;     0.520;    31.298;   3014.163; 1;   3014.163;   3014.326;   3029.853;   2998.555;;;;;;;;;;;;;;;;;;;;;;;; 190.128; 294.370;  -3.893;  19.087; 191.009; 316.292;;;;
2001-01-09T08:18:40.281Z;2;1.1780e-01;1;     0.509;    31.208;   3082.400; 1;   3082.400;   3082.558;   3098.043;   3066.835;;;;;;;;;;;;;;;;;;;;;;;; 190.135; 295.013;  -4.007;  19.088; 191.068; 316.441;;;;
2001-01-09T08:19:44.281Z;2;1.1780e-01;1;     0.509;    30.682;   3082.400; 1;   3082.400;   3082.552;   3097.779;   3067.097;;;;;;;;;;;;;;;;;;;;;;;; 190.142; 295.656;  -4.121;  19.089; 191.129; 316.591;;;;
2001-01-09T08:20:48.281Z;2;1.1780e-01;1;     0.509;    32.314;   3082.400; 1;   3082.400;   3082.569;   3098.599;   3066.285;;;;;;;;;;;;;;;;;;;;;;;; 190.149; 296.298;  -4.235;  19.090; 191.191; 316.741;;;;
2001-01-09T08:21:52.281Z;2;1.1270e-01;1;     0.520;    25.904;   3014.163; 1;   3014.163;   3014.274;   3027.143;   3001.239;;;;;;;;;;;;;;;;;;;;;;;; 190.155; 296.941;  -4.348;  19.091; 191.255; 316.891;;;;
2001-01-09T08:22:56.279Z;2;1.1780e-01;1;     0.509;    18.672;   3082.400; 1;   3082.400;   3082.457;   3091.750;   3073.078;;;;;;;;;;;;;;;;;;;;;;;; 190.162; 297.583;  -4.462;  19.091; 191.320; 317.040;;;;
2001-01-09T08:24:00.279Z;2;1.1780e-01;1;     0.509;    27.028;   3082.400; 1;   3082.400;   3082.518;   3095.943;   3068.916;;;;;;;;;;;;;;;;;;;;;;;; 190.169; 298.226;  -4.575;  19.092; 191.387; 317.190;;;;
2001-01-09T08:25:04.279Z;2;1.1270e-01;1;     0.520;    34.164;   3014.163; 1;   3014.163;   3014.357;   3031.293;   2997.130;;;;;;;;;;;;;;;;;;;;;;;; 190.176; 298.868;  -4.688;  19.093; 191.454; 317.340;;;;
2001-01-09T08:26:08.279Z;2;1.1780e-01;1;     0.509;    32.323;   3082.400; 1;   3082.400;   3082.569;   3098.604;   3066.281;;;;;;;;;;;;;;;;;;;;;;;; 190.183; 299.511;  -4.800;  19.094; 191.524; 317.490;;;;
2001-01-09T08:27:12.277Z;2;1.1780e-01;1;     0.509;    30.323;   3082.400; 1;   3082.400;   3082.549;   3097.599;   3067.276;;;;;;;;;;;;;;;;;;;;;;;; 190.189; 300.154;  -4.913;  19.094; 191.594; 317.639;;;;
2001-01-09T08:28:16.277Z;2;1.1270e-01;1;     0.520;    31.244;   3014.163; 1;   3014.163;   3014.325;   3029.825;   2998.582;;;;;;;;;;;;;;;;;;;;;;;; 190.196; 300.796;  -5.025;  19.095; 191.666; 317.789;;;;
2001-01-09T08:29:20.277Z;2;1.1780e-01;1;     0.509;    36.869;   3082.400; 1;   3082.400;   3082.620;   3100.890;   3064.021;;;;;;;;;;;;;;;;;;;;;;;; 190.203; 301.439;  -5.136;  19.096; 191.740; 317.939;;;;
2001-01-09T08:30:24.277Z;2;1.1270e-01;1;     0.520;    37.540;   3014.163; 1;   3014.163;   3014.397;   3032.991;   2995.452;;;;;;;;;;;;;;;;;;;;;;;; 190.210; 302.081;  -5.248;  19.096; 191.814; 318.088;;;;
2001-01-09T08:31:28.277Z;2;1.1780e-01;1;     0.509;    34.797;   3082.400; 1;   3082.400;   3082.596;   3099.847;   3065.051;;;;;;;;;;;;;;;;;;;;;;;; 190.217; 302.724;  -5.359;  19.097; 191.890; 318.238;;;;
2001-01-09T08:32:32.275Z;2;9.4190e-02;1;     0.263;    37.313;   2755.991; 1;   2755.991;   2756.244;   2774.711;   2737.398;;;;;;;;;;;;;;;;;;;;;;;; 190.223; 303.367;  -5.470;  19.098; 191.968; 318.388;;;;
2001-01-09T08:33:36.275Z;2;9.8500e-02;1;     0.258;    38.579;   2818.383; 1;   2818.383;   2818.647;   2837.739;   2799.160;;;;;;;;;;;;;;;;;;;;;;;; 190.230; 304.009;  -5.580;  19.098; 192.046; 318.538;;;;
2001-01-09T08:34:40.275Z;2;1.1780e-01;1;     0.254;    36.788;   3082.400; 1;   3082.400;   3082.619;   3100.849;   3064.061;;;;;;;;;;;;;;;;;;;;;;;; 190.237; 304.652;  -5.690;  19.099; 192.126; 318.687;;;;
2001-01-09T08:35:44.275Z;2;1.0770e-01;1;     0.266;    30.008;   2947.437; 1;   2947.437;   2947.590;   2962.479;   2932.471;;;;;;;;;;;;;;;;;;;;;;;; 190.244; 305.294;  -5.800;  19.099; 192.207; 318.837;;;;
2001-01-09T08:36:48.273Z;2;1.1780e-01;1;     0.509;    17.812;   3082.400; 1;   3082.400;   3082.451;   3091.319;   3073.507;;;;;;;;;;;;;;;;;;;;;;;; 190.250; 305.937;  -5.909;  19.100; 192.289; 318.987;;;;
2001-01-09T08:37:52.273Z;2;1.1780e-01;1;     0.509;    12.741;   3082.400; 1;   3082.400;   3082.426;   3088.777;   3076.036;;;;;;;;;;;;;;;;;;;;;;;; 190.257; 306.579;  -6.018;  19.100; 192.372; 319.137;;;;
2001-01-09T08:38:56.273Z;2;1.0770e-01;1;     0.532;    33.713;   2947.437; 1;   2947.437;   2947.630;   2964.342;   2930.629;;;;;;;;;;;;;;;;;;;;;;;; 190.264; 307.222;  -6.127;  19.101; 192.456; 319.286;;;;
2001-01-09T08:40:00.273Z;2;9.4190e-02;1;     0.527;    38.621;   2755.991; 1;   2755.991;   2756.261;   2775.369;   2736.748;;;;;;;;;;;;;;;;;;;;;;;; 190.271; 307.865;  -6.235;  19.101; 192.542; 319.436;;;;
2001-01-09T08:41:04.273Z;2;9.0070e-02;1;     0.249;    38.120;   2694.982; 1;   2694.982;   2695.251;   2714.109;   2675.989;;;;;;;;;;;;;;;;;;;;;;;; 190.278; 308.507;  -6.342;  19.102; 192.628; 319.586;;;;
2001-01-09T08:42:08.271Z;2;9.4190e-02;1;     0.263;    36.650;   2755.991; 1;   2755.991;   2756.235;   2774.377;   2737.727;;;;;;;;;;;;;;;;;;;;;;;; 190.284; 309.150;  -6.450;  19.102; 192.716; 319.735;;;;
2001-01-09T08:43:12.271Z;2;9.4190e-02;1;     0.263;    37.405;   2755.991; 1;   2755.991;   2756.245;   2774.757;   2737.352;;;;;;;;;;;;;;;;;;;;;;;; 190.291; 309.792;  -6.556;  19.103; 192.805; 319.885;;;;
2001-01-09T08:44:16.271Z;2;9.4190e-02;1;     0.263;    40.031;   2755.991; 1;   2755.991;   2756.282;   2776.079;   2736.048;;;;;;;;;;;;;;;;;;;;;;;; 190.298; 310.435;  -6.662;  19.103; 192.894; 320.035;;;;
2001-01-09T08:45:20.271Z;2;9.4190e-02;1;     0.263;    40.185;   2755.991; 1;   2755.991;   2756.284;   2776.157;   2735.972;;;;;;;;;;;;;;;;;;;;;;;; 190.305; 311.078;  -6.768;  19.103; 192.985; 320.185;;;;
2001-01-09T08:46:24.271Z;2;9.4190e-02;1;     0.263;    39.228;   2755.991; 1;   2755.991;   2756.270;   2775.675;   2736.447;;;;;;;;;;;;;;;;;;;;;;;; 190.312; 311.720;  -6.873;  19.103; 193.077; 320.334;;;;
2001-01-09T08:47:28.270Z;2;9.4190e-02;1;     0.263;    38.809;   2755.991; 1;   2755.991;   2756.264;   2775.464;   2736.655;;;;;;;;;;;;;;;;;;;;;;;; 190.318; 312.363;  -6.978;  19.104; 193.169; 320.484;;;;
2001-01-09T08:48:32.270Z;2;1.0300e-01;1;     0.504;    34.775;   2882.188; 1;   2882.188;   2882.398;   2899.628;   2864.853;;;;;;;;;;;;;;;;;;;;;;;; 190.325; 313.005;  -7.082;  19.104; 193.263; 320.634;;;;
2001-01-09T08:49:36.270Z;2;1.1780e-01;1;     0.509;    22.708;   3082.400; 1;   3082.400;   3082.484;   3093.775;   3071.067;;;;;;;;;;;;;;;;;;;;;;;; 190.332; 313.648;  -7.185;  19.104; 193.357; 320.784;;;;
2001-01-09T08:50:40.270Z;2;1.1780e-01;1;     0.509;    31.865;   3082.400; 1;   3082.400;   3082.565;   3098.374;   3066.509;;;;;;;;;;;;;;;;;;;;;;;; 190.339; 314.290;  -7.288;  19.104; 193.452; 320.933;;;;
2001-01-09T08:51:44.268Z;2;1.2320e-01;1;     0.535;    35.631;   3152.181; 1;   3152.181;   3152.382;   3170.047;   3134.416;;;;;;;;;;;;;;;;;;;;;;;; 190.346; 314.933;  -7.391;  19.104; 193.548; 321.083;;;;
2001-01-09T08:52:48.268Z;2;1.2890e-01;1;     0.261;    33.436;   3223.543; 1;   3223.543;   3223.716;   3240.304;   3206.868;;;;;;;;;;;;;;;;;;;;;;;; 190.352; 315.576;  -7.493;  19.105; 193.645; 321.233;;;;
2001-01-09T08:53:52.268Z;2;1.1270e-01;1;     0.260;    35.528;   3014.163; 1;   3014.163;   3014.373;   3031.979;   2996.452;;;;;;;;;;;;;;;;;;;;;;;; 190.359; 316.218;  -7.594;  19.105; 193.743; 321.382;;;;
2001-01-09T08:54:56.268Z;2;1.0770e-01;1;     0.266;    39.635;   2947.437; 1;   2947.437;   2947.703;   2967.321;   2927.686;;;;;;;;;;;;;;;;;;;;;;;; 190.366; 316.861;  -7.694;  19.105; 193.841; 321.532;;;;
2001-01-09T08:56:00.268Z;2;9.8500e-02;1;     0.258;    39.875;   2818.383; 1;   2818.383;   2818.665;   2838.391;   2798.516;;;;;;;;;;;;;;;;;;;;;;;; 190.373; 317.503;  -7.794;  19.105; 193.940; 321.682;;;;
2001-01-09T08:57:04.266Z;2;9.8500e-02;1;     0.258;    38.893;   2818.383; 1;   2818.383;   2818.651;   2837.896;   2799.004;;;;;;;;;;;;;;;;;;;;;;;; 190.380; 318.146;  -7.894;  19.105; 194.039; 321.832;;;;
2001-01-09T08:58:08.266Z;2;9.8500e-02;1;     0.258;    37.242;   2818.383; 1;   2818.383;   2818.629;   2837.066;   2799.823;;;;;;;;;;;;;;;;;;;;;;;; 190.386; 318.789;  -7.992;  19.105; 194.139; 321.981;;;;
2001-01-09T08:59:12.266Z;2;9.4190e-02;1;     0.263;    36.958;   2755.991; 1;   2755.991;   2756.239;   2774.532;   2737.574;;;;;;;;;;;;;;;;;;;;;;;; 190.393; 319.431;  -8.090;  19.105; 194.240; 322.131;;;;
2001-01-09T09:00:16.266Z;2;9.4190e-02;1;     0.263;    38.001;   2755.991; 1;   2755.991;   2756.253;   2775.057;   2737.056;;;;;;;;;;;;;;;;;;;;;;;; 190.400; 320.074;  -8.187;  19.104; 194.341; 322.281;;;;
2001-01-09T09:01:20.264Z;2;9.4190e-02;1;     0.263;    38.161;   2755.991; 1;   2755.991;   2756.255;   2775.137;   2736.977;;;;;;;;;;;;;;;;;;;;;;;; 190.407; 320.716;  -8.284;  19.104; 194.443; 322.431;;;;
2001-01-09T09:02:24.264Z;2;9.8500e-02;1;     0.258;    36.734;   2818.383; 1;   2818.383;   2818.622;   2836.810;   2800.076;;;;;;;;;;;;;;;;;;;;;;;; 190.413; 321.359;  -8.380;  19.104; 194.545; 322.580;;;;
2001-01-09T09:03:28.264Z;2;9.8500e-02;1;     0.515;    22.129;   2818.383; 1;   2818.383;   2818.470;   2829.469;   2807.340;;;;;;;;;;;;;;;;;;;;;;;; 190.420; 322.002;  -8.475;  19.104; 194.648; 322.730;;;;
2001-01-09T09:04:32.264Z;2;1.1270e-01;1;     0.520;    11.407;   3014.163; 1;   3014.163;   3014.185;   3019.872;   3008.465;;;;;;;;;;;;;;;;;;;;;;;; 190.427; 322.644;  -8.570;  19.104; 194.751; 322.880;;;;
2001-01-09T09:05:36.264Z;2;9.4190e-02;1;     0.527;    26.783;   2755.991; 1;   2755.991;   2756.121;   2769.415;   2742.632;;;;;;;;;;;;;;;;;;;;;;;; 190.434; 323.287;  -8.663;  19.104; 194.855; 323.029;;;;
2001-01-09T09:06:40.262Z;2;9.8500e-02;1;     0.515;    34.742;   2818.383; 1;   2818.383;   2818.597;   2835.808;   2801.065;;;;;;;;;;;;;;;;;;;;;;;; 190.441; 323.929;  -8.756;  19.103; 194.959; 323.179;;;;
2001-01-09T09:07:44.262Z;2;1.0300e-01;1;     0.504;    33.620;   2882.188; 1;   2882.188;   2882.384;   2899.047;   2865.427;;;;;;;;;;;;;;;;;;;;;;;; 190.447; 324.572;  -8.848;  19.103; 195.063; 323.329;;;;
2001-01-09T09:08:48.262Z;2;9.4190e-02;1;     0.263;    34.099;   2755.991; 1;   2755.991;   2756.202;   2773.093;   2738.994;;;;;;;;;;;;;;;;;;;;;;;; 190.454; 325.215;  -8.940;  19.103; 195.167; 323.479;;;;
2001-01-09T09:09:52.262Z;2;9.8500e-02;1;     0.515;    35.781;   2818.383; 1;   2818.383;   2818.610;   2836.330;   2800.549;;;;;;;;;;;;;;;;;;;;;;;; 190.461; 325.857;  -9.030;  19.102; 195.272; 323.628;;;;
2001-01-09T09:10:56.262Z;2;9.8500e-02;1;     0.515;    35.713;   2818.383; 1;   2818.383;   2818.609;   2836.296;   2800.583;;;;;;;;;;;;;;;;;;;;;;;; 190.468; 326.500;  -9.120;  19.102; 195.376; 323.778;;;;
2001-01-09T09:12:00.262Z;2;9.4190e-02;1;     0.263;    36.001;   2755.991; 1;   2755.991;   2756.226;   2774.050;   2738.049;;;;;;;;;;;;;;;;;;;;;;;; 190.475; 327.142;  -9.209;  19.101; 195.481; 323.928;;;;
2001-01-09T09:13:04.258Z;2;9.4190e-02;1;     0.263;    38.301;   2755.991; 1;   2755.991;   2756.257;   2775.208;   2736.907;;;;;;;;;;;;;;;;;;;;;;;; 190.481; 327.785;  -9.297;  19.101; 195.586; 324.077;;;;
2001-01-09T09:14:08.258Z;2;9.4190e-02;1;     0.263;    41.020;   2755.991; 1;   2755.991;   2756.296;   2776.577;   2735.557;;;;;;;;;;;;;;;;;;;;;;;; 190.488; 328.427;  -9.385;  19.101; 195.691; 324.227;;;;
2001-01-09T09:15:12.258Z;2;9.8500e-02;1;     0.258;    35.501;   2818.383; 1;   2818.383;   2818.607;   2836.189;   2800.688;;;;;;;;;;;;;;;;;;;;;;;; 190.495; 329.070;  -9.471;  19.100; 195.797; 324.377;;;;
2001-01-09T09:16:16.258Z;2;1.0300e-01;1;     0.252;    31.367;   2882.188; 1;   2882.188;   2882.359;   2897.914;   2866.547;;;;;;;;;;;;;;;;;;;;;;;; 190.502; 329.713;  -9.557;  19.099; 195.902; 324.527;;;;
2001-01-09T09:17:20.258Z;2;1.0770e-01;1;     0.532;    19.043;   2947.437; 1;   2947.437;   2947.499;   2956.974;   2937.931;;;;;;;;;;;;;;;;;;;;;;;; 190.509; 330.355;  -9.641;  19.099; 196.007; 324.676;;;;
2001-01-09T09:18:24.258Z;2;9.8500e-02;1;     0.258;    32.459;   2818.383; 1;   2818.383;   2818.570;   2834.659;   2802.200;;;;;;;;;;;;;;;;;;;;;;;; 190.515; 330.998;  -9.725;  19.098; 196.112; 324.826;;;;
2001-01-09T09:19:28.258Z;2;9.4190e-02;1;     0.263;    40.503;   2755.991; 1;   2755.991;   2756.289;   2776.317;   2735.814;;;;;;;;;;;;;;;;;;;;;;;; 190.522; 331.640;  -9.808;  19.098; 196.216; 324.976;;;;
2001-01-09T09:20:32.258Z;2;9.0070e-02;1;     0.249;    39.984;   2694.982; 1;   2694.982;   2695.279;   2715.048;   2675.064;;;;;;;;;;;;;;;;;;;;;;;; 190.529; 332.283;  -9.890;  19.097; 196.321; 325.126;;;;
2001-01-09T09:21:36.258Z;2;9.4190e-02;1;     0.527;    43.363;   2755.991; 1;   2755.991;   2756.332;   2777.758;   2734.395;;;;;;;;;;;;;;;;;;;;;;;; 190.536; 332.926;  -9.971;  19.096; 196.425; 325.275;;;;
2001-01-09T09:22:40.254Z;2;8.2350e-02;1;     0.539;    43.041;   2576.982; 1;   2576.982;   2577.341;   2598.592;   2555.551;;;;;;;;;;;;;;;;;;;;;;;; 190.543; 333.568; -10.052;  19.096; 196.529; 325.425;;;;
2001-01-09T09:23:44.254Z;2;6.5830e-02;1;     0.490;    40.248;   2304.094; 1;   2304.094;   2304.446;   2324.306;   2284.058;;;;;;;;;;;;;;;;;;;;;;;; 190.549; 334.211; -10.131;  19.095; 196.633; 325.575;;;;
2001-01-09T09:24:48.254Z;2;4.8120e-02;1;     0.607;    40.356;   1969.902; 1;   1969.902;   1970.315;   1990.183;   1949.827;;;;;;;;;;;;;;;;;;;;;;;; 190.556; 334.853; -10.209;  19.094; 196.737; 325.724;;;;
2001-01-09T09:25:52.254Z;2;4.2070e-02;1;     0.593;    39.546;   1841.950; 1;   1841.950;   1842.374;   1861.829;   1822.283;;;;;;;;;;;;;;;;;;;;;;;; 190.563; 335.496; -10.287;  19.093; 196.840; 325.874;;;;
2001-01-09T09:26:56.254Z;2;4.6010e-02;1;     0.621;    40.675;   1926.293; 1;   1926.293;   1926.722;   1946.738;   1906.063;;;;;;;;;;;;;;;;;;;;;;;; 190.570; 336.139; -10.363;  19.093; 196.943; 326.024;;;;
2001-01-09T09:28:00.254Z;2;4.6010e-02;1;     0.621;    39.468;   1926.293; 1;   1926.293;   1926.697;   1946.128;   1906.660;;;;;;;;;;;;;;;;;;;;;;;; 190.577; 336.781; -10.438;  19.092; 197.045; 326.174;;;;
2001-01-09T09:29:04.254Z;2;4.4000e-02;1;     0.635;    42.164;   1883.650; 1;   1883.650;   1884.122;   1904.850;   1862.686;;;;;;;;;;;;;;;;;;;;;;;; 190.583; 337.424; -10.513;  19.091; 197.146; 326.323;;;;
2001-01-09T09:30:08.254Z;2;4.6010e-02;1;     0.310;    46.171;   1926.293; 1;   1926.293;   1926.846;   1949.517;   1903.346;;;;;;;;;;;;;;;;;;;;;;;; 190.590; 338.066; -10.586;  19.090; 197.248; 326.473;;;;
2001-01-09T09:31:12.254Z;2;4.6010e-02;1;     0.310;    45.105;   1926.293; 1;   1926.293;   1926.821;   1948.978;   1903.872;;;;;;;;;;;;;;;;;;;;;;;; 190.597; 338.709; -10.659;  19.089; 197.348; 326.623;;;;
2001-01-09T09:32:16.250Z;2;4.4000e-02;1;     0.317;    45.694;   1883.650; 1;   1883.650;   1884.204;   1906.635;   1860.942;;;;;;;;;;;;;;;;;;;;;;;; 190.604; 339.352; -10.730;  19.088; 197.448; 326.772;;;;
2001-01-09T09:33:20.250Z;2;4.8120e-02;1;     0.303;    44.720;   1969.902; 1;   1969.902;   1970.410;   1992.389;   1947.669;;;;;;;;;;;;;;;;;;;;;;;; 190.611; 339.994; -10.801;  19.087; 197.548; 326.922;;;;
2001-01-09T09:34:24.250Z;2;4.4000e-02;1;     0.317;    44.491;   1883.650; 1;   1883.650;   1884.175;   1906.027;   1861.536;;;;;;;;;;;;;;;;;;;;;;;; 190.617; 340.637; -10.870;  19.086; 197.646; 327.072;;;;
2001-01-09T09:35:28.250Z;2;3.8470e-02;1;     0.258;    45.278;   1761.300; 1;   1761.300;   1761.882;   1784.085;   1738.807;;;;;;;;;;;;;;;;;;;;;;;; 190.624; 341.279; -10.938;  19.085; 197.744; 327.222;;;;
2001-01-09T09:36:32.250Z;2;4.0230e-02;1;     0.253;    45.527;   1801.174; 1;   1801.174;   1801.749;   1824.081;   1778.554;;;;;;;;;;;;;;;;;;;;;;;; 190.631; 341.922; -11.005;  19.084; 197.841; 327.371;;;;
2001-01-09T09:37:36.250Z;2;4.0230e-02;1;     0.253;    43.801;   1801.174; 1;   1801.174;   1801.706;   1823.207;   1779.407;;;;;;;;;;;;;;;;;;;;;;;; 190.638; 342.564; -11.072;  19.083; 197.937; 327.521;;;;
2001-01-09T09:38:40.250Z;2;3.8470e-02;1;     0.258;    44.478;   1761.300; 1;   1761.300;   1761.862;   1783.680;   1739.201;;;;;;;;;;;;;;;;;;;;;;;; 190.645; 343.207; -11.137;  19.082; 198.033; 327.671;;;;
2001-01-09T09:39:44.246Z;2;4.0230e-02;1;     0.253;    44.908;   1801.174; 1;   1801.174;   1801.734;   1823.768;   1778.860;;;;;;;;;;;;;;;;;;;;;;;; 190.652; 343.850; -11.201;  19.081; 198.127; 327.820;;;;
2001-01-09T09:40:48.246Z;2;4.0230e-02;1;     0.253;    45.727;   1801.174; 1;   1801.174;   1801.754;   1824.182;   1778.456;;;;;;;;;;;;;;;;;;;;;;;; 190.658; 344.492; -11.264;  19.080; 198.221; 327.970;;;;
2001-01-09T09:41:52.246Z;2;4.2070e-02;1;     0.247;    44.106;   1841.950; 1;   1841.950;   1842.478;   1864.135;   1820.029;;;;;;;;;;;;;;;;;;;;;;;; 190.665; 345.135; -11.326;  19.079; 198.313; 328.120;;;;
2001-01-09T09:42:56.246Z;2;4.2070e-02;1;     0.247;    42.645;   1841.950; 1;   1841.950;   1842.444;   1863.396;   1820.751;;;;;;;;;;;;;;;;;;;;;;;; 190.672; 345.777; -11.386;  19.077; 198.405; 328.270;;;;
2001-01-09T09:44:00.246Z;2;4.6010e-02;1;     0.621;    41.493;   1926.293; 1;   1926.293;   1926.740;   1947.151;   1905.658;;;;;;;;;;;;;;;;;;;;;;;; 190.679; 346.420; -11.446;  19.076; 198.495; 328.419;;;;
2001-01-09T09:45:04.246Z;2;5.2630e-02;1;     0.516;    36.484;   2060.104; 1;   2060.104;   2060.427;   2078.427;   2041.943;;;;;;;;;;;;;;;;;;;;;;;; 190.686; 347.063; -11.504;  19.075; 198.585; 328.569;;;;
2001-01-09T09:46:08.246Z;2;9.4190e-02;1;     0.263;    33.805;   2755.991; 1;   2755.991;   2756.198;   2772.946;   2739.140;;;;;;;;;;;;;;;;;;;;;;;; 190.692; 347.705; -11.562;  19.074; 198.673; 328.719;;;;
2001-01-09T09:47:12.246Z;2;9.0070e-02;1;     0.249;    35.990;   2694.982; 1;   2694.982;   2695.222;   2713.037;   2677.047;;;;;;;;;;;;;;;;;;;;;;;; 190.699; 348.348; -11.618;  19.072; 198.760; 328.868;;;;
2001-01-09T09:48:16.246Z;2;9.0070e-02;1;     0.249;    37.369;   2694.982; 1;   2694.982;   2695.241;   2713.731;   2676.362;;;;;;;;;;;;;;;;;;;;;;;; 190.706; 348.990; -11.673;  19.071; 198.846; 329.018;;;;
2001-01-09T09:49:20.242Z;2;9.4190e-02;1;     0.263;    37.038;   2755.991; 1;   2755.991;   2756.240;   2774.572;   2737.534;;;;;;;;;;;;;;;;;;;;;;;; 190.713; 349.633; -11.727;  19.070; 198.930; 329.168;;;;
2001-01-09T09:50:24.242Z;2;9.8500e-02;1;     0.515;    37.710;   2818.383; 1;   2818.383;   2818.635;   2837.301;   2799.591;;;;;;;;;;;;;;;;;;;;;;;; 190.720; 350.276; -11.780;  19.069; 199.014; 329.317;;;;
2001-01-09T09:51:28.242Z;2;9.8500e-02;1;     0.515;    37.798;   2818.383; 1;   2818.383;   2818.636;   2837.345;   2799.548;;;;;;;;;;;;;;;;;;;;;;;; 190.726; 350.918; -11.831;  19.067; 199.096; 329.467;;;;
2001-01-09T09:52:32.242Z;2;9.0070e-02;1;     0.249;    38.268;   2694.982; 1;   2694.982;   2695.254;   2714.184;   2675.916;;;;;;;;;;;;;;;;;;;;;;;; 190.733; 351.561; -11.882;  19.066; 199.176; 329.617;;;;